Temperature
14 15 15 15 15 15 15 15 16 16 15 16 16 16 16 15 16 16 15 15 15 15 15 15 14 14 14 15 14 14 14 14 14 14 14 14 14 14 14 14 14 14 14
15 15 15 15 15 15 15 15 15 15 15 15 15 15 15 15 15 15 15 15 15 15 15 15 14 14 15 14 14 14 14 14 14 14 14 14 14 14 14 14 14 14 14
15 15 15 15 15 15 15 15 15 15 15 15 15 15 15 15 15 15 15 15 15 15 15 15 14 15 14 14 14 14 14 14 14 14 14 14 14 14 14 14 14 14 14
15 14 14 14 15 15 15 15 15 15 15 15 15 15 15 15 15 15 15 14 14 14 14 14 14 14 14 14 14 14 14 14 14 14 14 14 14 14 14 14 14 14 14
14 14 14 14 14 14 14 15 15 15 15 15 15 15 15 14 14 15 14 14 14 14 14 14 14 14 14 14 14 14 14 14 13 14 14 13 13 13 14 14 14 14 14
14 14 14 14 14 14 14 14 14 15 14 14 14 14 14 14 14 14 14 14 14 14 14 14 14 14 14 14 14 13 13 13 13 13 13 13 13 13 13 13 14 14 14
14 14 14 14 14 14 14 14 14 14 14 14 14 14 14 14 14 14 14 14 14 14 14 14 14 14 14 13 13 13 13 13 13 13 13 13 13 13 13 13 13 13 13
13 13 13 13 13 14 14 14 14 14 14 14 14 14 14 14 14 14 14 14 14 14 14 14 14 14 13 13 13 13 13 13 13 13 13 13 13 13 13 13 13 13 13
13 13 13 13 13 13 13 13 13 13 14 14 14 14 14 14 14 13 13 13 14 14 14 13 14 13 13 13 13 13 13 13 13 13 13 13 13 13 13 13 13 13 13
12 12 13 12 13 13 13 13 13 13 13 14 14 14 14 14 13 13 13 13 13 13 13 13 13 13 13 13 13 13 13 13 13 13 12 12 12 13 13 13 13 12 12
12 12 12 12 12 12 13 13 13 13 13 13 13 13 13 13 13 13 13 13 13 13 13 13 13 13 13 13 13 12 12 12 12 12 12 12 12 12 12 12 12 12 12
12 12 12 12 12 12 12 12 12 12 13 13 13 13 13 13 13 13 13 13 13 13 13 13 13 13 12 12 12 12 12 12 12 12 12 12 12 12 12 12 12 12 12
11 11 11 11 12 12 12 12 12 12 12 12 12 13 13 13 13 12 12 12 12 12 12 12 12 12 12 12 12 12 12 12 12 12 12 12 12 12 12 12 12 12 11
11 11 11 11 11 11 11 11 12 12 12 12 12 12 12 12 12 12 12 12 12 12 12 12 12 12 12 12 12 12 12 11 11 12 12 11 11 11 11 11 11 11 11
11 11 11 11 11 11 11 11 11 11 11 12 12 12 12 12 12 12 12 12 12 12 12 11 11 11 11 11 11 11 11 11 11 11 11 11 11 11 11 11 11 11 10
10 10 10 10 10 11 11 11 11 11 11 11 11 11 11 11 12 12 11 11 11 11 11 11 11 11 11 11 11 11 11 11 11 11 11 11 11 11 11 11 10 10 10
10 10 10 10 10 10 10 10 10 10 11 11 11 11 11 11 11 11 11 11 11 11 11 11 10 10 10 10 11 10 10 10 10 11 11 11 10 10 10 10 10 10 10
10 10 10 10 10 10 10 10 10 10 10 10 10 11 11 11 11 11 11 11 11 10 10 10 10 10 10 10 10 10 10 10 10 10 10 10 10 10 10 10 10 10 9
10 10 9 9 9 9 9 9 9 9 10 10 10 10 10 10 10 11 10 10 10 10 10 10 10 10 10 10 10 10 10 10 10 10 10 10 10 10 10 10 9 9 9
10 10 9 9 9 9 9 9 9 9 9 9 9 10 10 10 10 10 10 10 10 10 9 9 9 9 9 9 9 9 9 9 9 9 9 9 9 9 9 9 9 9 9
9 9 9 9 9 9 9 9 9 8 9 9 9 9 9 9 9 9 10 9 9 9 9 9 9 9 9 9 9 8 9 9 9 9 9 9 9 9 9 9 9 9 9
9 9 9 9 9 9 9 9 9 8 8 8 8 9 9 9 9 9 9 9 9 9 9 9 9 9 9 8 8 8 8 8 8 8 8 8 9 8 9 9 9 9 8
9 9 9 9 9 8 8 8 8 8 8 8 8 8 8 8 9 9 9 9 9 9 9 9 8 8 8 8 8 8 8 8 7 8 8 8 8 8 8 8 8 8 8
9 9 8 8 8 8 8 8 8 8 8 7 7 8 8 8 8 8 8 8 8 8 8 8 8 8 8 8 8 8 8 8 7 7 7 7 7 8 8 8 8 8 8
8 8 8 8 8 8 8 8 7 7 7 7 7 7 7 7 8 8 8 8 8 8 8 8 8 8 8 8 8 8 7 7 7 7 7 7 7 7 7 7 7 7 7
8 8 8 7 7 7 7 7 7 7 7 7 7 7 7 7 7 7 7 7 8 8 7 7 7 7 7 7 7 7 7 7 7 7 7 7 7 7 7 7 7 7 7
Wind_Speed
1 1 3 4 5 6 7 8 8 9 9 10 10 10 11 11 11 11 11 10 10 10 10 11 11 11 11 11 12 12 12 12 12 12 12 12 12 13 13 12 12 11 13
3 3 4 4 5 6 7 7 8 8 9 9 10 10 10 10 10 10 10 9 10 10 10 10 11 11 11 11 11 11 10 10 11 10 10 10 11 12 12 12 11 10 12
3 3 4 5 5 5 6 7 7 8 8 9 9 9 9 10 10 9 9 9 10 10 10 10 10 10 10 10 9 9 9 10 9 9 8 8 9 11 12 12 12 11 11
4 4 4 5 6 5 6 7 7 7 7 8 9 9 9 9 9 9 9 9 10 10 10 10 10 10 9 8 8 8 8 9 9 8 7 7 8 11 12 11 11 12 11
3 3 4 6 5 5 5 6 7 7 7 8 8 9 8 8 9 9 9 9 9 9 10 10 9 9 8 7 8 8 8 9 10 9 8 8 8 10 11 11 11 11 11
2 3 4 6 5 5 5 6 7 7 8 8 7 8 8 8 8 8 8 9 9 9 9 9 9 9 8 7 8 8 9 9 10 9 9 8 8 11 11 11 11 11 10
2 2 3 4 5 5 5 6 6 7 7 8 7 7 8 8 7 8 8 8 9 9 9 9 9 8 8 7 7 8 9 9 9 8 8 7 8 10 10 10 10 10 10
2 2 2 4 4 4 4 5 6 7 7 7 7 7 7 8 8 7 8 8 9 9 9 9 8 8 7 7 7 9 9 8 8 8 7 7 8 9 10 10 10 10 11
2 2 2 2 3 4 4 4 6 6 7 7 7 7 7 8 8 8 8 8 9 9 8 8 8 8 7 6 7 8 9 9 8 6 6 6 8 9 10 10 10 11 11
1 1 1 1 2 3 4 4 5 6 6 6 7 7 7 7 8 8 8 9 9 9 8 7 7 7 6 6 7 8 8 8 7 6 6 6 8 9 10 10 10 11 11
1 1 0 1 2 3 4 4 5 6 6 6 6 7 6 6 7 7 8 9 9 8 8 7 6 6 6 6 7 7 7 7 7 6 5 7 8 9 10 10 10 10 10
2 2 0 0 1 2 3 4 3 4 5 5 4 5 6 6 6 6 8 8 8 8 7 6 6 5 5 5 5 6 6 7 6 5 6 7 7 8 10 10 10 11 10
3 2 1 1 1 2 2 4 3 3 4 4 4 5 6 6 5 5 5 6 6 6 5 5 5 4 5 5 5 6 6 6 6 5 5 6 7 8 9 10 10 10 10
2 2 1 1 1 2 2 3 3 3 3 3 5 6 6 4 3 4 3 4 4 5 4 4 4 5 5 5 6 6 6 6 6 6 6 7 8 8 8 9 9 9 9
2 2 2 2 2 2 2 2 2 3 3 4 5 6 7 5 4 3 3 3 4 5 4 4 4 4 4 4 5 6 5 6 6 6 6 7 7 7 8 8 9 9 8
3 3 2 2 1 2 2 1 1 2 3 4 5 6 7 6 5 4 3 3 3 5 5 5 4 4 3 4 4 4 5 5 5 6 6 6 7 7 7 8 8 7 7
3 3 2 3 2 1 1 2 2 2 3 3 4 6 7 7 7 5 4 3 3 5 6 5 5 5 3 4 3 3 4 4 5 5 6 6 6 6 7 6 6 6 6
2 2 3 2 2 2 1 1 1 1 2 2 3 5 6 6 7 6 4 3 4 5 5 4 3 3 3 3 2 2 3 3 4 4 5 5 5 5 5 5 5 5 4
3 3 3 3 3 3 3 2 1 1 1 1 3 3 5 6 7 5 4 3 5 4 3 3 2 3 3 2 2 2 1 1 2 3 4 5 5 5 5 4 4 3 3
2 3 3 3 3 3 3 3 2 2 2 1 2 3 4 5 6 5 4 4 4 3 2 2 3 2 2 2 2 2 2 1 1 2 3 3 4 5 5 5 4 3 2
1 2 3 4 3 3 3 3 2 1 1 1 1 3 3 4 5 5 4 4 3 3 3 3 3 3 2 2 3 2 3 2 1 0 2 2 2 3 4 5 4 3 2
2 2 3 3 3 3 3 3 2 1 0 0 1 2 3 3 3 4 4 3 3 3 3 3 3 2 1 2 2 2 1 2 2 1 1 2 2 2 3 4 4 4 3
1 2 3 3 3 3 3 3 3 2 2 1 1 1 1 3 3 4 4 4 3 2 3 3 3 3 3 1 1 2 2 3 1 2 1 1 1 1 2 3 4 5 5
1 1 3 3 3 3 4 4 5 3 2 1 1 1 1 2 2 3 4 4 3 2 3 3 2 2 4 3 1 0 1 2 2 1 2 1 2 3 3 3 3 4 5
0 1 2 3 3 3 3 4 4 2 2 1 1 1 1 1 2 3 3 4 3 2 3 2 2 3 3 3 2 1 1 1 1 2 2 2 2 3 3 4 4 4 5
1 2 2 3 2 2 2 3 3 3 3 3 2 1 1 0 1 2 3 3 3 2 3 3 2 3 3 2 2 2 2 2 2 2 2 2 3 3 3 3 4 4 5
Wind_Direction
246 225 134 116 123 130 125 121 118 122 120 117 116 116 114 111 110 111 111 108 105 104 102 102 102 100 100 96 92 90 89 88 86 84 81 82 86 87 86 83 81 77 81
188 164 139 126 120 126 135 131 126 123 124 122 121 119 119 118 117 117 115 113 110 107 105 105 104 103 100 96 91 88 87 89 87 84 78 78 85 89 89 87 87 84 83
136 138 138 124 119 122 129 135 135 132 127 126 124 121 121 123 122 120 115 116 116 111 109 108 105 103 100 96 90 87 88 90 88 83 81 81 85 93 92 89 88 86 84
125 118 125 121 118 118 125 129 137 135 131 128 129 127 124 126 127 124 119 116 114 111 109 110 107 103 100 95 89 86 87 92 89 83 85 90 90 96 93 90 88 86 86
108 108 126 122 125 123 124 132 135 136 133 129 130 134 132 129 132 130 125 120 116 114 113 113 111 107 102 97 91 85 86 92 84 85 87 90 93 97 93 90 87 86 84
82 101 127 130 122 128 127 135 138 139 138 133 132 137 137 134 130 132 130 124 121 121 119 118 116 110 103 99 90 81 83 90 82 84 87 95 97 98 94 93 92 90 88
62 78 130 130 132 128 135 134 141 141 145 143 140 138 142 142 137 133 134 132 131 128 124 121 119 113 106 97 87 81 84 87 83 85 89 98 103 102 97 95 97 91 89
77 65 130 143 149 142 135 140 146 149 154 153 150 146 144 146 144 137 136 139 138 134 130 126 122 117 110 99 87 83 86 89 88 92 91 97 105 104 101 97 99 95 90
77 79 108 143 160 162 148 141 148 151 152 158 157 151 148 149 147 143 136 137 139 135 131 130 130 123 118 106 89 86 88 88 86 93 98 100 105 108 105 99 100 99 93
69 75 86 122 158 160 159 156 150 155 151 155 160 154 151 149 149 144 138 138 137 136 134 133 132 128 117 105 96 92 91 86 83 92 101 108 108 108 107 104 103 101 96
5 346 17 145 151 151 155 150 147 157 154 150 153 148 136 133 140 143 136 137 137 136 135 136 134 127 117 104 101 97 91 84 84 86 101 115 112 108 106 106 105 105 101
294 287 271 250 171 148 150 136 133 142 143 137 133 136 133 127 129 138 138 136 134 133 133 133 132 124 115 98 98 98 92 91 85 84 98 113 117 113 110 107 104 103 101
243 254 281 210 156 137 137 135 128 136 141 136 131 139 135 127 123 122 125 126 124 122 115 118 114 109 109 108 104 100 99 94 87 87 96 114 118 118 115 111 110 106 104
236 241 228 186 159 148 142 140 141 137 146 147 151 149 138 127 120 123 122 124 115 111 104 105 108 109 104 115 116 108 104 102 94 89 93 111 115 117 118 118 116 112 108
242 242 219 182 176 156 142 157 162 158 169 162 151 154 149 144 147 140 134 124 115 113 107 99 100 100 96 96 113 114 108 107 101 99 96 106 116 118 121 122 121 117 112
230 226 209 168 160 142 147 157 186 178 175 155 152 155 152 146 144 139 135 120 118 123 123 118 110 104 94 95 93 102 108 112 109 109 104 106 115 120 123 124 127 125 121
225 209 181 162 121 95 161 167 167 167 163 160 157 155 151 145 145 140 135 133 129 127 121 110 102 95 96 95 89 88 101 113 116 116 117 113 115 120 125 128 130 131 132
212 197 185 166 133 100 74 122 132 148 163 161 156 154 151 150 148 138 136 138 136 126 120 119 116 103 95 92 85 78 87 98 115 123 124 122 119 118 124 131 131 135 144
209 195 176 155 143 124 86 58 63 93 106 133 139 144 151 151 148 142 140 138 135 125 122 135 122 124 119 104 95 82 76 90 113 127 126 134 137 134 126 126 131 136 150
198 176 157 150 150 133 107 82 57 53 40 77 113 127 139 147 148 142 136 134 131 128 126 133 134 121 131 131 95 62 29 24 100 137 147 138 141 148 145 137 129 128 144
140 139 145 148 159 146 135 127 109 72 22 20 78 112 126 140 147 142 139 136 136 146 151 145 142 128 114 114 87 50 12 8 31 152 142 136 140 156 151 149 147 145 150
160 158 157 160 163 161 154 143 131 129 119 182 73 84 118 135 150 148 139 143 145 147 146 144 135 136 136 126 126 120 62 347 339 321 207 175 178 153 159 169 165 166 168
181 183 175 173 157 142 124 115 105 78 61 46 58 86 104 138 145 141 144 139 140 152 168 171 162 152 165 180 148 156 160 203 265 307 270 213 203 195 197 188 183 187 189
231 194 171 159 147 141 133 134 145 148 154 210 189 183 114 116 135 143 140 142 148 153 165 182 176 167 162 179 204 253 161 156 168 236 302 288 252 229 223 212 201 200 199
123 138 147 149 150 151 148 143 146 140 133 126 131 150 134 122 138 144 146 148 155 167 174 171 172 167 174 181 184 178 130 72 148 174 237 276 284 254 236 219 207 205 208
80 106 129 145 159 157 142 140 149 150 144 140 149 167 165 181 149 152 157 158 161 171 181 181 174 171 180 179 188 185 180 180 190 182 212 254 266 273 258 227 208 203 206
Height
1529 1530 1530 1530 1530 1531 1531 1532 1532 1532 1532 1533 1533 1533 1534 1534 1535 1535 1535 1536 1536 1536 1536 1537 1537 1537 1538 1538 1539 1539 1539 1539 1539 1540 1540 1540 1540 1540 1540 1541 1541 1541 1541
1529 1529 1530 1530 1530 1530 1531 1531 1531 1532 1532 1532 1533 1533 1534 1534 1534 1535 1535 1535 1536 1536 1536 1537 1537 1538 1538 1539 1539 1539 1540 1540 1540 1540 1541 1541 1541 1541 1541 1542 1542 1542 1542
1528 1529 1529 1529 1529 1529 1530 1530 1531 1531 1532 1532 1532 1533 1533 1534 1534 1534 1535 1535 1536 1536 1537 1537 1538 1538 1539 1539 1539 1540 1540 1540 1541 1541 1541 1542 1542 1542 1542 1542 1543 1543 1543
1528 1528 1528 1529 1529 1529 1529 1529 1530 1531 1531 1531 1532 1532 1533 1533 1534 1534 1535 1535 1536 1536 1537 1537 1538 1538 1539 1539 1540 1540 1540 1541 1541 1542 1542 1542 1543 1543 1543 1543 1543 1543 1543
1527 1527 1527 1528 1528 1528 1528 1528 1529 1530 1530 1531 1531 1531 1532 1533 1533 1534 1534 1535 1535 1536 1537 1537 1538 1538 1539 1540 1540 1540 1541 1541 1541 1542 1542 1543 1543 1544 1544 1544 1544 1544 1544
1526 1526 1526 1527 1527 1527 1527 1527 1528 1528 1529 1530 1530 1531 1531 1532 1533 1533 1534 1535 1535 1536 1536 1537 1538 1538 1539 1540 1540 1540 1541 1541 1542 1542 1543 1543 1544 1544 1544 1544 1544 1544 1544
1525 1525 1525 1525 1526 1526 1526 1526 1526 1527 1528 1529 1529 1530 1530 1531 1532 1533 1533 1534 1535 1535 1536 1537 1537 1538 1539 1540 1540 1540 1541 1541 1542 1542 1543 1544 1544 1544 1544 1544 1545 1545 1545
1524 1524 1524 1524 1524 1524 1524 1524 1525 1525 1526 1527 1528 1529 1530 1530 1531 1532 1533 1533 1534 1535 1535 1536 1537 1538 1539 1539 1540 1540 1541 1541 1542 1542 1543 1544 1544 1544 1544 1545 1545 1545 1545
1523 1522 1522 1522 1522 1522 1522 1523 1523 1524 1525 1526 1527 1528 1529 1529 1530 1531 1532 1533 1533 1534 1535 1535 1536 1537 1538 1539 1540 1540 1541 1541 1542 1542 1543 1544 1544 1544 1544 1544 1545 1545 1545
1521 1521 1520 1520 1520 1520 1521 1521 1521 1522 1523 1524 1525 1526 1527 1528 1529 1530 1531 1532 1532 1533 1534 1535 1536 1537 1538 1538 1539 1540 1541 1541 1542 1542 1543 1543 1544 1544 1544 1544 1545 1545 1545
1519 1519 1518 1518 1518 1518 1518 1519 1519 1520 1521 1522 1523 1524 1525 1526 1527 1528 1529 1530 1531 1532 1533 1534 1535 1536 1537 1538 1539 1539 1540 1541 1541 1542 1542 1543 1543 1544 1544 1544 1544 1545 1545
1516 1516 1516 1516 1515 1515 1516 1516 1517 1518 1519 1520 1521 1522 1523 1524 1525 1526 1528 1529 1530 1531 1532 1533 1534 1535 1536 1537 1538 1539 1540 1540 1541 1541 1542 1543 1543 1543 1544 1544 1544 1544 1544
1514 1514 1513 1513 1513 1513 1513 1514 1515 1515 1517 1518 1519 1520 1522 1523 1524 1525 1526 1527 1528 1530 1531 1532 1533 1534 1535 1536 1537 1538 1539 1540 1540 1541 1542 1542 1542 1543 1543 1544 1544 1544 1544
1512 1511 1511 1511 1511 1511 1511 1511 1512 1513 1514 1515 1516 1518 1519 1520 1522 1523 1525 1525 1527 1528 1529 1531 1532 1533 1534 1535 1536 1537 1538 1539 1540 1540 1541 1541 1542 1542 1543 1543 1543 1543 1543
1509 1509 1509 1508 1508 1508 1509 1509 1510 1511 1512 1513 1514 1515 1517 1518 1520 1521 1523 1524 1525 1526 1528 1529 1531 1532 1533 1534 1535 1536 1537 1538 1539 1539 1540 1541 1541 1541 1542 1542 1542 1542 1542
1506 1506 1506 1506 1506 1506 1507 1507 1508 1509 1510 1510 1511 1513 1515 1516 1518 1519 1521 1522 1524 1525 1527 1528 1530 1531 1532 1533 1534 1535 1536 1537 1537 1538 1539 1540 1540 1540 1541 1541 1541 1541 1541
1504 1504 1503 1504 1504 1504 1504 1505 1506 1507 1508 1509 1509 1511 1513 1514 1516 1517 1519 1521 1522 1524 1525 1527 1528 1530 1531 1532 1533 1534 1535 1536 1536 1537 1537 1538 1539 1539 1540 1540 1540 1540 1540
1501 1500 1501 1502 1502 1502 1502 1503 1504 1505 1506 1506 1507 1509 1511 1512 1514 1515 1517 1519 1520 1522 1524 1525 1527 1528 1529 1530 1531 1532 1533 1534 1534 1535 1536 1536 1537 1538 1538 1538 1539 1539 1539
1498 1498 1498 1499 1500 1500 1501 1501 1501 1503 1504 1505 1506 1507 1508 1511 1512 1514 1515 1517 1519 1520 1522 1523 1525 1526 1527 1528 1529 1530 1531 1532 1533 1533 1534 1535 1535 1536 1536 1537 1537 1537 1538
1495 1496 1496 1497 1497 1498 1499 1499 1500 1500 1502 1503 1504 1505 1507 1509 1511 1512 1514 1515 1517 1518 1520 1521 1523 1524 1525 1526 1527 1528 1529 1530 1531 1531 1532 1533 1534 1534 1534 1534 1535 1535 1536
1493 1493 1494 1495 1496 1496 1496 1497 1497 1498 1499 1501 1503 1504 1505 1507 1509 1510 1512 1513 1515 1517 1518 1519 1520 1522 1523 1524 1525 1525 1527 1528 1528 1529 1530 1530 1531 1532 1532 1532 1532 1533 1533
1491 1492 1493 1493 1494 1494 1494 1494 1496 1497 1498 1499 1501 1502 1504 1506 1507 1509 1510 1512 1513 1515 1516 1517 1518 1519 1520 1521 1522 1523 1524 1526 1526 1527 1527 1528 1529 1529 1530 1530 1530 1530 1530
1490 1490 1491 1491 1492 1492 1493 1493 1494 1495 1496 1497 1498 1500 1502 1504 1506 1508 1509 1510 1511 1512 1514 1515 1516 1516 1517 1519 1521 1522 1522 1522 1523 1524 1524 1525 1526 1526 1527 1527 1527 1528 1528
1489 1489 1489 1490 1490 1491 1491 1491 1491 1492 1494 1495 1496 1498 1500 1502 1504 1505 1506 1508 1509 1510 1512 1513 1514 1515 1515 1516 1518 1519 1520 1520 1520 1520 1521 1522 1523 1523 1524 1524 1524 1525 1524
1488 1488 1488 1489 1489 1489 1490 1490 1490 1491 1493 1494 1495 1497 1498 1500 1502 1503 1504 1506 1507 1508 1509 1510 1511 1512 1513 1513 1515 1516 1517 1517 1518 1517 1517 1518 1519 1519 1520 1520 1521 1521 1521
1487 1487 1487 1488 1488 1488 1489 1489 1490 1490 1491 1492 1493 1494 1496 1497 1499 1500 1502 1503 1504 1505 1506 1507 1509 1509 1510 1511 1512 1513 1514 1514 1514 1515 1514 1514 1514 1515 1516 1516 1517 1517 1517